| time (UTC) | temp F | wind direction | speed MPH | gust MPH | rain 1hr in | rain 24hr in | rain mn in | humidity % | barometer mb |
| 20260902005453 | 56 | 156 | 0.0 | 0.0 | 0.00 | 0.00 | 0.00 | 85 | 1021.8 |
| 20260902004700 | 56 | 77 | 0.0 | 0.0 | 0.00 | 0.00 | 0.00 | 85 | 1021.8 |
| 20260902003929 | 56 | 138 | 0.0 | 1.0 | 0.00 | 0.00 | 0.00 | 86 | 1021.9 |
| 20260902003201 | 56 | 138 | 0.0 | 1.0 | 0.00 | 0.00 | 0.00 | 86 | 1022.1 |
| 20260902002417 | 56 | 120 | 0.0 | 0.0 | 0.00 | 0.00 | 0.00 | 86 | 1022.1 |
| 20260902001649 | 56 | 120 | 0.0 | 0.0 | 0.00 | 0.00 | 0.00 | 86 | 1021.9 |
| 20260902000935 | 56 | 120 | 0.0 | 1.0 | 0.00 | 0.00 | 0.00 | 86 | 1021.8 |
| 20260902000645 | 56 | 120 | 0.0 | 1.0 | 0.00 | 0.00 | 0.00 | 86 | 1021.8 |
| 20260901235921 | 56 | 120 | 0.0 | 0.0 | 0.00 | 0.00 | 0.00 | 87 | 1021.7 |
| 20260901235428 | 56 | 120 | 0.0 | 0.0 | 0.00 | 0.00 | 0.00 | 86 | 1021.8 |
| 20260901235249 | 56 | 120 | 0.0 | 0.0 | 0.00 | 0.00 | 0.00 | 85 | 1021.8 |
| 20260901234515 | 57 | 120 | 0.0 | 0.0 | 0.00 | 0.00 | 0.00 | 84 | 1021.8 |
| 20260901234235 | 57 | 120 | 0.0 | 0.0 | 0.00 | 0.00 | 0.00 | 84 | 1021.8 |
| 20260901233327 | 57 | 120 | 0.0 | 0.0 | 0.00 | 0.00 | 0.00 | 83 | 1021.9 |
| 20260901232554 | 58 | 120 | 0.0 | 0.0 | 0.00 | 0.00 | 0.00 | 83 | 1021.9 |
| 20260901231906 | 59 | 120 | 0.0 | 0.0 | 0.00 | 0.00 | 0.00 | 80 | 1021.9 |
| 20260901231129 | 59 | 120 | 0.0 | 1.0 | 0.00 | 0.00 | 0.00 | 79 | 1022.0 |
| 20260901230417 | 59 | 120 | 0.0 | 1.0 | 0.00 | 0.00 | 0.00 | 78 | 1021.9 |
| 20260901225658 | 59 | 120 | 0.0 | 1.0 | 0.00 | 0.00 | 0.00 | 78 | 1021.9 |
| 20260901225014 | 59 | 90 | 1.0 | 2.0 | 0.00 | 0.00 | 0.00 | 79 | 1021.9 |
| 20260901224231 | 59 | 122 | 0.0 | 1.0 | 0.00 | 0.00 | 0.00 | 80 | 1021.9 |
| 20260901223451 | 58 | 138 | 0.0 | 1.0 | 0.00 | 0.00 | 0.00 | 81 | 1022.1 |
| 20260901222722 | 58 | 138 | 0.0 | 1.0 | 0.00 | 0.00 | 0.00 | 82 | 1022.0 |
| 20260901221956 | 58 | 138 | 0.0 | 0.0 | 0.00 | 0.00 | 0.00 | 82 | 1021.9 |
| 20260901221207 | 59 | 138 | 0.0 | 0.0 | 0.00 | 0.00 | 0.00 | 80 | 1021.9 |
| 20260901220445 | 59 | 138 | 0.0 | 0.0 | 0.00 | 0.00 | 0.00 | 80 | 1021.9 |
| 20260901215643 | 60 | 138 | 0.0 | 1.0 | 0.00 | 0.00 | 0.00 | 79 | 1022.0 |
| 20260901214905 | 60 | 138 | 0.0 | 0.0 | 0.00 | 0.00 | 0.00 | 78 | 1022.1 |
| 20260901214129 | 60 | 138 | 0.0 | 0.0 | 0.00 | 0.00 | 0.00 | 78 | 1022.1 |
| 20260901213408 | 60 | 138 | 0.0 | 0.0 | 0.00 | 0.00 | 0.00 | 79 | 1022.2 |
| 20260901213305 | 61 | 138 | 0.0 | 0.0 | 0.00 | 0.00 | 0.00 | 78 | 1022.0 |
| 20260901212519 | 61 | 138 | 0.0 | 0.0 | 0.00 | 0.00 | 0.00 | 77 | 1022.2 |
| 20260901211508 | 61 | 138 | 0.0 | 0.0 | 0.00 | 0.00 | 0.00 | 77 | 1022.2 |
| 20260901210549 | 62 | 138 | 0.0 | 0.0 | 0.00 | 0.00 | 0.00 | 77 | 1022.2 |
| 20260901210236 | 62 | 138 | 0.0 | 1.0 | 0.00 | 0.00 | 0.00 | 76 | 1022.3 |
| 20260901205531 | 62 | 138 | 0.0 | 1.0 | 0.00 | 0.00 | 0.00 | 76 | 1022.3 |
| 20260901205316 | 62 | 160 | 0.0 | 1.0 | 0.00 | 0.00 | 0.00 | 76 | 1022.4 |
| 20260901204524 | 62 | 164 | 0.0 | 2.0 | 0.00 | 0.00 | 0.00 | 77 | 1022.4 |
| 20260901203457 | 62 | 152 | 0.0 | 3.0 | 0.00 | 0.00 | 0.00 | 77 | 1022.4 |
| 20260901202745 | 62 | 165 | 1.0 | 3.0 | 0.00 | 0.00 | 0.00 | 76 | 1022.3 |
| 20260901202008 | 63 | 179 | 1.0 | 2.0 | 0.00 | 0.00 | 0.00 | 76 | 1022.3 |
| 20260901201531 | 64 | 191 | 1.0 | 3.0 | 0.00 | 0.00 | 0.00 | 73 | 1022.1 |
| 20260901200432 | 64 | 141 | 1.0 | 3.0 | 0.00 | 0.00 | 0.00 | 71 | 1021.9 |
| 20260901200155 | 64 | 155 | 1.0 | 3.0 | 0.00 | 0.00 | 0.00 | 72 | 1022.0 |
| 20260901195403 | 64 | 123 | 0.0 | 1.0 | 0.00 | 0.00 | 0.00 | 72 | 1021.9 |
| 20260901194621 | 64 | 140 | 0.0 | 1.0 | 0.00 | 0.00 | 0.00 | 72 | 1021.9 |
| 20260901193846 | 63 | 127 | 0.0 | 2.0 | 0.00 | 0.00 | 0.00 | 74 | 1021.9 |
| 20260901193115 | 63 | 143 | 0.0 | 1.0 | 0.00 | 0.00 | 0.00 | 75 | 1021.9 |
| 20260901192056 | 63 | 143 | 0.0 | 0.0 | 0.00 | 0.00 | 0.00 | 76 | 1021.8 |
| 20260901191315 | 64 | 143 | 0.0 | 1.0 | 0.00 | 0.00 | 0.00 | 74 | 1021.7 |
| 20260901190630 | 64 | 143 | 0.0 | 1.0 | 0.00 | 0.00 | 0.00 | 73 | 1021.7 |
| 20260901190149 | 64 | 172 | 0.0 | 1.0 | 0.00 | 0.00 | 0.00 | 72 | 1021.6 |
| 20260901185653 | 64 | 125 | 0.0 | 0.0 | 0.00 | 0.00 | 0.00 | 71 | 1021.5 |
| 20260901184925 | 65 | 125 | 0.0 | 1.0 | 0.00 | 0.00 | 0.00 | 71 | 1021.5 |
| 20260901184505 | 65 | 125 | 0.0 | 1.0 | 0.00 | 0.00 | 0.00 | 70 | 1021.6 |
| 20260901184216 | 65 | 128 | 0.0 | 1.0 | 0.00 | 0.00 | 0.00 | 69 | 1021.5 |
| 20260901183821 | 65 | 128 | 0.0 | 1.0 | 0.00 | 0.00 | 0.00 | 69 | 1021.5 |
| 20260901183054 | 66 | 143 | 0.0 | 0.0 | 0.00 | 0.00 | 0.00 | 69 | 1021.4 |
| 20260901182313 | 66 | 143 | 0.0 | 1.0 | 0.00 | 0.00 | 0.00 | 68 | 1021.3 |
| 20260901181351 | 67 | 165 | 0.0 | 1.0 | 0.00 | 0.00 | 0.00 | 66 | 1021.3 |
| 20260901180341 | 68 | 134 | 0.0 | 0.0 | 0.00 | 0.00 | 0.00 | 65 | 1021.4 |
| 20260901175414 | 68 | 134 | 0.0 | 1.0 | 0.00 | 0.00 | 0.00 | 65 | 1021.5 |
| 20260901174630 | 68 | 133 | 0.0 | 0.0 | 0.00 | 0.00 | 0.00 | 64 | 1021.4 |
| 20260901173917 | 68 | 122 | 0.0 | 1.0 | 0.00 | 0.00 | 0.00 | 64 | 1021.4 |
| 20260901173640 | 68 | 122 | 0.0 | 3.0 | 0.00 | 0.00 | 0.00 | 63 | 1021.4 |
| 20260901172940 | 69 | 135 | 0.0 | 2.0 | 0.00 | 0.00 | 0.00 | 62 | 1021.4 |
| 20260901172607 | 69 | 124 | 1.0 | 3.0 | 0.00 | 0.00 | 0.00 | 61 | 1021.4 |
| 20260901171446 | 69 | 138 | 1.0 | 3.0 | 0.00 | 0.00 | 0.00 | 61 | 1021.4 |
| 20260901171212 | 69 | 169 | 1.0 | 2.0 | 0.00 | 0.00 | 0.00 | 63 | 1021.5 |
| 20260901170456 | 69 | 165 | 0.0 | 0.0 | 0.00 | 0.00 | 0.00 | 66 | 1021.5 |
| 20260901165710 | 69 | 165 | 0.0 | 0.0 | 0.00 | 0.00 | 0.00 | 66 | 1021.4 |
| 20260901164950 | 69 | 165 | 0.0 | 1.0 | 0.00 | 0.00 | 0.00 | 66 | 1021.4 |
| 20260901164436 | 69 | 165 | 0.0 | 2.0 | 0.00 | 0.00 | 0.00 | 65 | 1021.4 |
| 20260901164051 | 70 | 172 | 1.0 | 5.0 | 0.00 | 0.00 | 0.00 | 60 | 1021.2 |
| 20260901163244 | 71 | 185 | 2.0 | 5.0 | 0.00 | 0.00 | 0.00 | 60 | 1021.3 |
| 20260901162456 | 71 | 162 | 2.0 | 5.0 | 0.00 | 0.00 | 0.00 | 59 | 1021.3 |
| 20260901161924 | 71 | 172 | 2.0 | 5.0 | 0.00 | 0.00 | 0.00 | 58 | 1021.2 |
| 20260901161645 | 71 | 188 | 1.0 | 3.0 | 0.00 | 0.00 | 0.00 | 61 | 1021.2 |
| 20260901160912 | 70 | 176 | 1.0 | 6.0 | 0.00 | 0.00 | 0.00 | 60 | 1021.2 |
| 20260901160717 | 71 | 196 | 3.0 | 6.0 | 0.00 | 0.00 | 0.00 | 58 | 1021.3 |
| 20260901160015 | 72 | 186 | 2.0 | 3.0 | 0.00 | 0.00 | 0.00 | 56 | 1021.3 |
| 20260901155550 | 71 | 164 | 0.0 | 2.0 | 0.00 | 0.12 | 0.00 | 59 | 1021.3 |
| 20260901154539 | 71 | 143 | 0.0 | 3.0 | 0.00 | 0.12 | 0.00 | 58 | 1021.2 |
| 20260901154150 | 72 | 149 | 1.0 | 5.0 | 0.00 | 0.12 | 0.00 | 59 | 1021.4 |
| 20260901153416 | 72 | 150 | 2.0 | 5.0 | 0.00 | 0.12 | 0.00 | 60 | 1021.4 |
| 20260901152633 | 73 | 216 | 1.0 | 4.0 | 0.00 | 0.12 | 0.00 | 56 | 1021.3 |
| 20260901151913 | 73 | 184 | 2.0 | 4.0 | 0.00 | 0.12 | 0.00 | 56 | 1021.2 |
| 20260901151716 | 73 | 204 | 1.0 | 6.0 | 0.00 | 0.12 | 0.00 | 57 | 1021.3 |
| 20260901150949 | 72 | 212 | 3.0 | 6.0 | 0.00 | 0.12 | 0.00 | 56 | 1021.2 |
| 20260901150802 | 72 | 247 | 2.0 | 5.0 | 0.00 | 0.12 | 0.00 | 55 | 1021.2 |
| 20260901150029 | 73 | 181 | 2.0 | 7.0 | 0.00 | 0.12 | 0.00 | 56 | 1021.2 |
| 20260901145000 | 72 | 190 | 2.0 | 7.0 | 0.00 | 0.12 | 0.00 | 56 | 1021.3 |
| 20260901143929 | 73 | 324 | 3.0 | 7.0 | 0.00 | 0.12 | 0.00 | 53 | 1021.3 |
| 20260901143156 | 73 | 195 | 3.0 | 7.0 | 0.00 | 0.12 | 0.00 | 56 | 1021.3 |
| 20260901142545 | 73 | 126 | 3.0 | 6.0 | 0.00 | 0.12 | 0.00 | 57 | 1021.4 |
| 20260901141529 | 71 | 207 | 3.0 | 8.0 | 0.00 | 0.12 | 0.00 | 55 | 1021.4 |
| 20260901140418 | 71 | 125 | 5.0 | 9.0 | 0.00 | 0.12 | 0.00 | 57 | 1021.4 |
| 20260901135701 | 72 | 167 | 5.0 | 9.0 | 0.00 | 0.12 | 0.00 | 59 | 1021.4 |
| 20260901135232 | 72 | 115 | 3.0 | 9.0 | 0.00 | 0.12 | 0.00 | 59 | 1021.4 |
| 20260901134431 | 72 | 159 | 2.0 | 7.0 | 0.00 | 0.12 | 0.00 | 62 | 1021.4 |
| 20260901133915 | 72 | 166 | 3.0 | 7.0 | 0.00 | 0.12 | 0.00 | 57 | 1021.5 |
| 20260901133515 | 72 | 73 | 3.0 | 8.0 | 0.00 | 0.12 | 0.00 | 58 | 1021.4 |
| 20260901132501 | 72 | 216 | 2.0 | 8.0 | 0.00 | 0.12 | 0.00 | 59 | 1021.4 |
| 20260901132209 | 71 | 203 | 4.0 | 8.0 | 0.00 | 0.12 | 0.00 | 60 | 1021.4 |
| 20260901131443 | 71 | 202 | 4.0 | 7.0 | 0.00 | 0.12 | 0.00 | 61 | 1021.5 |
| 20260901130857 | 69 | 169 | 2.0 | 6.0 | 0.00 | 0.12 | 0.00 | 63 | 1021.5 |
| 20260901130124 | 69 | 184 | 3.0 | 6.0 | 0.00 | 0.12 | 0.00 | 64 | 1021.6 |
| 20260901125412 | 69 | 189 | 2.0 | 5.0 | 0.00 | 0.16 | 0.00 | 67 | 1021.6 |
| 20260901125134 | 69 | 158 | 1.0 | 5.0 | 0.00 | 0.16 | 0.00 | 70 | 1021.6 |
| 20260901124414 | 68 | 150 | 1.0 | 4.0 | 0.00 | 0.16 | 0.00 | 71 | 1021.7 |
| 20260901124117 | 68 | 181 | 1.0 | 5.0 | 0.00 | 0.16 | 0.00 | 70 | 1021.6 |
| 20260901123401 | 68 | 175 | 2.0 | 5.0 | 0.00 | 0.16 | 0.00 | 69 | 1021.6 |
| 20260901122856 | 68 | 174 | 1.0 | 4.0 | 0.00 | 0.16 | 0.00 | 69 | 1021.7 |
| 20260901122126 | 68 | 167 | 1.0 | 5.0 | 0.00 | 0.16 | 0.00 | 68 | 1021.7 |
| 20260901121516 | 69 | 186 | 4.0 | 8.0 | 0.00 | 0.16 | 0.00 | 63 | 1021.7 |
| 20260901120752 | 70 | 138 | 4.0 | 6.0 | 0.00 | 0.16 | 0.00 | 66 | 1021.6 |
| 20260901115958 | 69 | 193 | 2.0 | 5.0 | 0.00 | 0.20 | 0.00 | 69 | 1021.6 |
| 20260901114930 | 68 | 146 | 2.0 | 6.0 | 0.00 | 0.20 | 0.00 | 72 | 1021.6 |
| 20260901113929 | 68 | 168 | 1.0 | 4.0 | 0.00 | 0.20 | 0.00 | 73 | 1021.6 |
| 20260901113815 | 67 | 162 | 1.0 | 3.0 | 0.00 | 0.20 | 0.00 | 76 | 1021.7 |
| 20260901112929 | 67 | 176 | 0.0 | 2.0 | 0.00 | 0.20 | 0.00 | 75 | 1021.7 |
| 20260901112351 | 67 | 174 | 1.0 | 2.0 | 0.00 | 0.20 | 0.00 | 75 | 1021.8 |
| 20260901111437 | 67 | 159 | 0.0 | 4.0 | 0.00 | 0.20 | 0.00 | 77 | 1021.8 |
| 20260901111118 | 67 | 148 | 0.0 | 5.0 | 0.00 | 0.20 | 0.00 | 76 | 1021.8 |
| 20260901110403 | 67 | 169 | 2.0 | 8.0 | 0.00 | 0.20 | 0.00 | 74 | 1021.9 |
| 20260901110028 | 67 | 182 | 3.0 | 8.0 | 0.00 | 0.59 | 0.00 | 74 | 1021.8 |
| 20260901105612 | 68 | 145 | 3.0 | 7.0 | 0.00 | 0.59 | 0.00 | 73 | 1021.8 |
| 20260901105311 | 68 | 150 | 3.0 | 5.0 | 0.00 | 0.59 | 0.00 | 77 | 1021.7 |
| 20260901104537 | 67 | 194 | 1.0 | 4.0 | 0.00 | 0.59 | 0.00 | 78 | 1021.8 |
| 20260901104143 | 66 | 208 | 0.0 | 2.0 | 0.00 | 0.59 | 0.00 | 79 | 1021.8 |
| 20260901103423 | 66 | 169 | 0.0 | 3.0 | 0.00 | 0.59 | 0.00 | 79 | 1021.8 |
| 20260901102800 | 66 | 143 | 3.0 | 5.0 | 0.00 | 0.59 | 0.00 | 78 | 1021.8 |
| 20260901101943 | 66 | 177 | 2.0 | 7.0 | 0.00 | 0.59 | 0.00 | 79 | 1021.8 |
| 20260901101310 | 66 | 162 | 1.0 | 6.0 | 0.00 | 0.59 | 0.00 | 81 | 1021.8 |
| 20260901100515 | 66 | 124 | 2.0 | 6.0 | 0.00 | 0.71 | 0.00 | 82 | 1021.8 |
| 20260901095531 | 65 | 141 | 3.0 | 6.0 | 0.00 | 0.71 | 0.00 | 83 | 1021.9 |
| 20260901094403 | 65 | 141 | 1.0 | 8.0 | 0.00 | 0.71 | 0.00 | 85 | 1021.9 |
| 20260901093424 | 64 | 114 | 3.0 | 8.0 | 0.00 | 0.71 | 0.00 | 85 | 1021.9 |
| 20260901093320 | 64 | 146 | 2.0 | 5.0 | 0.00 | 0.71 | 0.00 | 85 | 1021.8 |
| 20260901092549 | 64 | 153 | 3.0 | 5.0 | 0.00 | 0.71 | 0.00 | 85 | 1021.9 |
| 20260901091914 | 64 | 203 | 3.0 | 5.0 | 0.00 | 0.71 | 0.00 | 86 | 1021.8 |
| 20260901091156 | 64 | 136 | 1.0 | 6.0 | 0.00 | 0.71 | 0.00 | 86 | 1021.8 |
| 20260901090525 | 64 | 49 | 2.0 | 6.0 | 0.00 | 0.71 | 0.00 | 87 | 1021.7 |
| 20260901085349 | 64 | 184 | 1.0 | 5.0 | 0.00 | 0.71 | 0.00 | 88 | 1021.6 |
| 20260901084633 | 63 | 139 | 2.0 | 6.0 | 0.00 | 0.71 | 0.00 | 87 | 1021.6 |
| 20260901083907 | 63 | 154 | 2.0 | 6.0 | 0.00 | 0.71 | 0.00 | 87 | 1021.5 |
| 20260901082911 | 63 | 176 | 1.0 | 6.0 | 0.00 | 0.71 | 0.00 | 88 | 1021.5 |
| 20260901082746 | 63 | 164 | 2.0 | 5.0 | 0.00 | 0.71 | 0.00 | 88 | 1021.5 |
| 20260901082015 | 62 | 120 | 3.0 | 7.0 | 0.00 | 0.71 | 0.00 | 88 | 1021.4 |
| 20260901081224 | 62 | 148 | 3.0 | 6.0 | 0.00 | 0.71 | 0.00 | 89 | 1021.2 |
| 20260901080438 | 62 | 155 | 3.0 | 6.0 | 0.00 | 0.71 | 0.00 | 88 | 1021.2 |
| 20260901075941 | 62 | 127 | 2.0 | 5.0 | 0.00 | 0.71 | 0.00 | 89 | 1021.1 |
| 20260901075829 | 62 | 155 | 1.0 | 8.0 | 0.00 | 0.79 | 0.00 | 89 | 1021.1 |
| 20260901075009 | 62 | 148 | 3.0 | 8.0 | 0.00 | 0.79 | 0.00 | 89 | 1021.1 |
| 20260901074603 | 62 | 117 | 1.0 | 6.0 | 0.00 | 0.79 | 0.00 | 90 | 1021.1 |
| 20260901073955 | 62 | 167 | 2.0 | 6.0 | 0.00 | 0.79 | 0.00 | 90 | 1021.0 |
| 20260901073159 | 61 | 117 | 2.0 | 6.0 | 0.00 | 0.79 | 0.00 | 90 | 1021.0 |
| 20260901072539 | 61 | 150 | 2.0 | 7.0 | 0.00 | 0.79 | 0.00 | 91 | 1020.9 |
| 20260901072308 | 61 | 162 | 2.0 | 6.0 | 0.00 | 0.79 | 0.00 | 91 | 1020.9 |
| 20260901071533 | 61 | 146 | 2.0 | 6.0 | 0.00 | 0.79 | 0.00 | 91 | 1020.9 |
| 20260901070505 | 61 | 115 | 1.0 | 6.0 | 0.00 | 0.79 | 0.00 | 91 | 1020.8 |
| 20260901070215 | 61 | 53 | 2.0 | 6.0 | 0.00 | 0.79 | 0.00 | 91 | 1020.8 |
| 20260901065035 | 60 | 111 | 1.0 | 4.0 | 0.00 | 0.79 | 0.00 | 92 | 1020.8 |
| 20260901064439 | 60 | 135 | 1.0 | 3.0 | 0.00 | 0.79 | 0.00 | 91 | 1020.7 |
| 20260901063106 | 60 | 127 | 2.0 | 5.0 | 0.00 | 0.79 | 0.00 | 91 | 1020.8 |
| 20260901062812 | 60 | 84 | 2.0 | 5.0 | 0.00 | 0.79 | 0.00 | 92 | 1020.7 |
| 20260901062022 | 60 | 98 | 1.0 | 5.0 | 0.00 | 0.79 | 0.00 | 92 | 1020.6 |
| 20260901061441 | 60 | 186 | 1.0 | 3.0 | 0.00 | 0.79 | 0.00 | 92 | 1020.4 |
| 20260901060645 | 60 | 141 | 0.0 | 4.0 | 0.00 | 0.79 | 0.00 | 92 | 1020.4 |
| 20260901055910 | 60 | 186 | 1.0 | 4.0 | 0.00 | 0.79 | 0.00 | 92 | 1020.4 |
| 20260901055531 | 60 | 136 | 1.0 | 3.0 | 0.00 | 0.79 | 0.00 | 92 | 1020.4 |
| 20260901055251 | 60 | 161 | 0.0 | 3.0 | 0.00 | 0.79 | 0.00 | 92 | 1020.4 |
| 20260901054524 | 60 | 131 | 1.0 | 3.0 | 0.00 | 0.79 | 0.00 | 92 | 1020.3 |
| 20260901054031 | 60 | 154 | 1.0 | 5.0 | 0.00 | 0.79 | 0.00 | 92 | 1020.2 |
| 20260901053040 | 60 | 118 | 1.0 | 4.0 | 0.00 | 0.79 | 0.00 | 92 | 1020.2 |
| 20260901052045 | 60 | 117 | 0.0 | 4.0 | 0.00 | 0.79 | 0.00 | 92 | 1020.1 |
| 20260901051621 | 60 | 146 | 1.0 | 5.0 | 0.00 | 0.79 | 0.00 | 92 | 1020.0 |
| 20260901045425 | 60 | 122 | 1.0 | 6.0 | 0.00 | 0.79 | 0.00 | 92 | 1020.0 |
| 20260901044916 | 60 | 125 | 0.0 | 5.0 | 0.00 | 0.79 | 0.00 | 92 | 1019.9 |
| 20260901044417 | 60 | 137 | 2.0 | 5.0 | 0.00 | 0.79 | 0.00 | 92 | 1019.8 |
| 20260901044214 | 60 | 166 | 1.0 | 5.0 | 0.00 | 0.79 | 0.00 | 92 | 1019.8 |
| 20260901043505 | 60 | 167 | 0.0 | 4.0 | 0.00 | 0.79 | 0.00 | 92 | 1019.8 |
| 20260901042511 | 59 | 143 | 2.0 | 5.0 | 0.00 | 0.79 | 0.00 | 92 | 1019.7 |
| 20260901041949 | 59 | 121 | 1.0 | 6.0 | 0.00 | 0.79 | 0.00 | 92 | 1019.5 |
| 20260901041223 | 59 | 151 | 2.0 | 6.0 | 0.00 | 0.79 | 0.00 | 92 | 1019.5 |
| 20260901040712 | 59 | 142 | 1.0 | 4.0 | 0.00 | 0.79 | 0.00 | 92 | 1019.6 |
| 20260901035937 | 59 | 136 | 1.0 | 6.0 | 0.00 | 0.79 | 0.00 | 92 | 1019.5 |
| 20260901035611 | 59 | 131 | 1.0 | 6.0 | 0.00 | 0.79 | 0.00 | 92 | 1019.5 |
| 20260901034153 | 59 | 169 | 0.0 | 4.0 | 0.00 | 0.79 | 0.00 | 92 | 1019.4 |
| 20260901033422 | 59 | 183 | 1.0 | 5.0 | 0.00 | 0.79 | 0.00 | 92 | 1019.4 |
| 20260901033027 | 59 | 150 | 1.0 | 5.0 | 0.00 | 0.79 | 0.00 | 92 | 1019.5 |
| 20260901032408 | 59 | 98 | 2.0 | 5.0 | 0.00 | 0.79 | 0.00 | 92 | 1019.4 |
| 20260901031944 | 59 | 127 | 1.0 | 4.0 | 0.00 | 0.79 | 0.00 | 92 | 1019.4 |
| 20260901031656 | 59 | 120 | 0.0 | 6.0 | 0.00 | 0.79 | 0.00 | 92 | 1019.4 |
| 20260901030912 | 59 | 87 | 1.0 | 6.0 | 0.00 | 0.79 | 0.00 | 92 | 1019.3 |
| 20260901030641 | 59 | 179 | 1.0 | 7.0 | 0.00 | 0.79 | 0.00 | 93 | 1019.3 |
| 20260901025145 | 59 | 161 | 1.0 | 5.0 | 0.00 | 0.79 | 0.00 | 93 | 1019.3 |
| 20260901023905 | 59 | 164 | 1.0 | 5.0 | 0.00 | 0.79 | 0.00 | 93 | 1019.3 |
| 20260901023455 | 58 | 122 | 0.0 | 3.0 | 0.00 | 0.79 | 0.00 | 93 | 1019.3 |
| 20260901022457 | 58 | 140 | 0.0 | 1.0 | 0.00 | 0.79 | 0.00 | 92 | 1019.4 |
| 20260901021424 | 58 | 148 | 0.0 | 0.0 | 0.00 | 0.79 | 0.00 | 92 | 1019.3 |
| 20260901020839 | 58 | 94 | 0.0 | 0.0 | 0.00 | 0.79 | 0.00 | 92 | 1019.3 |
| 20260901020051 | 59 | 160 | 0.0 | 0.0 | 0.00 | 0.79 | 0.00 | 92 | 1019.4 |
| 20260901015048 | 59 | 160 | 0.0 | 1.0 | 0.00 | 0.79 | 0.00 | 92 | 1019.3 |
| 20260901014459 | 59 | 195 | 0.0 | 1.0 | 0.00 | 0.79 | 0.00 | 92 | 1019.3 |
| 20260901013610 | 59 | 176 | 0.0 | 0.0 | 0.00 | 0.79 | 0.00 | 91 | 1019.4 |
| 20260901013059 | 59 | 176 | 0.0 | 0.0 | 0.00 | 0.79 | 0.00 | 91 | 1019.3 |
| 20260901012505 | 59 | 176 | 0.0 | 1.0 | 0.00 | 0.79 | 0.00 | 91 | 1019.3 |
| 20260901012038 | 59 | 130 | 0.0 | 1.0 | 0.00 | 0.79 | 0.00 | 91 | 1019.3 |
| 20260901011747 | 60 | 149 | 0.0 | 3.0 | 0.00 | 0.79 | 0.00 | 91 | 1019.3 |
| 20260901010912 | 60 | 184 | 0.0 | 3.0 | 0.00 | 0.79 | 0.00 | 91 | 1019.3 |
| 20260901010706 | 60 | 141 | 0.0 | 5.0 | 0.00 | 0.79 | 0.00 | 91 | 1019.3 |
| 20260901005922 | 60 | 155 | 0.0 | 5.0 | 0.00 | 0.79 | 0.00 | 91 | 1019.3 |
| 20260901005635 | 60 | 128 | 0.0 | 2.0 | 0.00 | 0.79 | 0.00 | 92 | 1019.4 |